Location: Kergonan
(48.2337°N, 4.5518°W)
Time: 16:42:17
(UTC+00:00)

Cosmos 2227 Rocket - Pass Details

Date: 18 January 2020
Orbit: 841 x 843 km, 71.0° (Epoch: 19 February)

Event Time Altitude Azimuth Distance (km) Brightness Sun altitude
Exits shadow 04:34:46 40° 119° (ESE) 1,222 3.2 -34.0°
Drops below altitude 10° 04:38:28 10° 139° (SE) 2,454 5.0 -33.4°
Sets 04:40:56 0° 143° (SE) 3,385 5.7 -33.0°
